FW3755 Weather Reports


Display with metric or nautical units.
time (UTC)temp
F
wind
direction
speed
MPH
gust
MPH
rain 1hr
in
rain 24hr
in
rain mn
in
humidity
%
barometer
mb
20260507040344 56 1 2.0 4.0 0.01 0.18 0.00 84 1051.8
20260507035349 57 344 3.0 6.0 0.02 0.18 0.18 84 1051.7
20260507034351 58 33 2.0 6.0 0.02 0.18 0.18 84 1051.6
20260507033450 58 273 2.0 3.0 0.01 0.17 0.17 85 1052.1
20260507032450 58 257 2.0 3.0 0.01 0.17 0.17 84 1051.8
20260507031549 59 285 2.0 4.0 0.01 0.17 0.17 85 1051.4
20260507031451 59 254 0.0 1.0 0.01 0.17 0.17 84 1051.3
20260507030449 59 306 4.0 6.0 0.01 0.17 0.17 84 1051.4
20260507025452 60 351 1.0 4.0 0.00 0.16 0.16 84 1051.4
20260507024451 60 277 3.0 5.0 0.00 0.16 0.16 84 1051.4
20260507023452 60 202 0.0 0.0 0.00 0.16 0.16 84 1051.2
20260507021648 61 253 3.0 5.0 0.00 0.16 0.16 84 1051.3
20260507021551 61 266 2.0 4.0 0.00 0.16 0.16 84 1051.4
20260507020552 61 260 2.0 5.0 0.00 0.16 0.16 83 1050.8
20260507013750 63 247 0.0 0.0 0.02 0.16 0.16 86 1051.3
20260507011750 63 243 2.0 4.0 0.02 0.16 0.16 85 1051.2
20260507011649 63 220 2.0 4.0 0.02 0.16 0.16 85 1051.3
20260507010748 64 247 1.0 2.0 0.02 0.16 0.16 86 1051.3
20260507005750 64 270 0.0 0.0 0.02 0.16 0.16 85 1051.0
20260507005651 64 270 0.0 0.0 0.02 0.16 0.16 85 1051.0
20260507003649 65 247 0.0 0.0 0.00 0.14 0.14 82 1050.5
20260507002650 65 247 0.0 0.0 0.00 0.14 0.14 81 1050.4
20260507002548 65 247 0.0 0.0 0.00 0.14 0.14 82 1050.4
20260507001648 65 247 0.0 0.0 0.00 0.14 0.14 81 1050.3
20260507000650 66 247 0.0 1.0 0.00 0.14 0.14 81 1050.4
20260506235650 66 180 0.0 0.0 0.00 0.14 0.14 79 1049.9
20260506234649 66 157 0.0 0.0 0.00 0.14 0.14 79 1049.9
20260506234551 66 157 0.0 0.0 0.00 0.14 0.14 80 1049.9
20260506233548 67 225 0.0 0.0 0.00 0.14 0.14 78 1049.8
20260506232633 67 247 0.0 1.0 0.00 0.14 0.14 78 1049.6
20260506231650 67 225 0.0 0.0 0.00 0.14 0.14 77 1049.7
20260506231551 67 225 0.0 0.0 0.00 0.14 0.14 78 1049.6
20260506224648 68 225 1.0 2.0 0.00 0.14 0.14 78 1049.6
20260506223651 67 247 0.0 0.0 0.00 0.14 0.14 78 1049.7
20260506222650 68 222 2.0 3.0 0.00 0.14 0.14 78 1049.7
20260506221651 68 247 0.0 2.0 0.00 0.14 0.14 77 1049.8
20260506220749 68 225 0.0 2.0 0.00 0.14 0.14 76 1049.6
20260506215751 68 225 0.0 0.0 0.00 0.14 0.14 77 1049.6
20260506213850 68 223 2.0 5.0 0.00 0.14 0.14 76 1049.5
20260506212849 68 204 3.0 4.0 0.00 0.14 0.14 76 1049.1
20260506211850 68 237 2.0 3.0 0.00 0.14 0.14 76 1049.2
20260506210748 68 242 3.0 6.0 0.00 0.14 0.14 76 1049.1
20260506205648 68 205 2.0 4.0 0.00 0.14 0.14 77 1048.9
20260506204747 67 227 3.0 4.0 0.00 0.14 0.14 76 1049.1
20260506203750 68 235 3.0 5.0 0.00 0.14 0.14 77 1049.1
20260506202849 68 228 2.0 5.0 0.00 0.14 0.14 77 1049.1
20260506202749 68 231 4.0 8.0 0.00 0.14 0.14 77 1049.1
20260506201748 67 241 3.0 4.0 0.00 0.14 0.14 77 1049.1
20260506201648 67 215 4.0 6.0 0.00 0.14 0.14 76 1049.1
20260506200648 67 212 2.0 4.0 0.00 0.14 0.14 75 1049.0
20260506195747 67 220 5.0 9.0 0.00 0.14 0.14 77 1049.1
20260506194650 67 227 4.0 6.0 0.00 0.14 0.14 76 1049.1
20260506192750 67 227 4.0 5.0 0.00 0.14 0.14 77 1049.3
20260506190749 66 205 2.0 4.0 0.00 0.14 0.14 79 1049.6
20260506184833 64 209 4.0 6.0 0.00 0.14 0.14 81 1049.8
20260506183849 64 220 5.0 7.0 0.00 0.14 0.14 82 1049.8
20260506183749 64 220 2.0 4.0 0.00 0.14 0.14 81 1049.8
20260506182749 64 207 3.0 7.0 0.00 0.14 0.14 81 1049.8
20260506181751 63 214 2.0 5.0 0.00 0.14 0.14 83 1050.0
20260506181649 63 240 3.0 5.0 0.00 0.14 0.14 82 1050.0
20260506180649 63 186 1.0 3.0 0.00 0.14 0.14 83 1050.3
20260506174649 62 236 5.0 9.0 0.00 0.14 0.14 84 1050.2
20260506174550 62 210 6.0 11.0 0.00 0.14 0.14 83 1050.2
20260506173549 62 218 3.0 5.0 0.00 0.14 0.14 84 1050.1
20260506172647 61 218 5.0 9.0 0.00 0.14 0.14 84 1050.2
20260506170649 61 218 3.0 7.0 0.00 0.14 0.14 85 1050.2
20260506164648 60 211 5.0 8.0 0.00 0.14 0.14 85 1050.4
20260506163648 60 225 3.0 4.0 0.00 0.14 0.14 86 1050.2
20260506162650 60 203 4.0 8.0 0.01 0.14 0.14 86 1050.4
20260506161650 60 201 3.0 8.0 0.01 0.14 0.14 86 1050.7
20260506160648 60 228 2.0 5.0 0.02 0.14 0.14 86 1050.7
20260506155549 60 222 5.0 9.0 0.02 0.14 0.14 87 1050.6
20260506153647 60 207 2.0 4.0 0.04 0.14 0.14 86 1050.6
20260506153549 60 222 4.0 5.0 0.04 0.14 0.14 87 1050.6
20260506152550 59 228 2.0 4.0 0.03 0.13 0.13 87 1050.9
20260506152449 59 231 2.0 4.0 0.03 0.13 0.13 86 1050.9
20260506151450 60 198 5.0 9.0 0.05 0.13 0.13 86 1051.1
20260506150450 60 200 0.0 4.0 0.05 0.12 0.12 86 1051.3
20260506145450 60 203 2.0 7.0 0.05 0.11 0.11 86 1051.2
20260506144550 60 226 4.0 5.0 0.05 0.10 0.10 86 1051.4
20260506143549 60 244 3.0 5.0 0.06 0.10 0.10 86 1051.2
20260506142550 60 145 1.0 3.0 0.07 0.10 0.10 85 1050.9
20260506140550 60 214 2.0 5.0 0.06 0.08 0.07 84 1051.3
20260506140449 60 189 2.0 9.0 0.05 0.07 0.07 85 1051.4
20260506135449 60 223 3.0 6.0 0.05 0.06 0.06 85 1051.7
20260506134536 60 214 1.0 3.0 0.04 0.05 0.05 83 1051.6
20260506133548 60 246 3.0 5.0 0.03 0.04 0.04 84 1051.5
20260506133449 60 247 2.0 3.0 0.04 0.04 0.04 83 1051.5
20260506132449 61 223 2.0 3.0 0.03 0.03 0.03 82 1051.6
20260506131449 61 179 2.0 4.0 0.02 0.02 0.02 82 1051.3
20260506130448 61 222 0.0 2.0 0.02 0.02 0.01 81 1051.1
20260506125449 61 247 0.0 2.0 0.01 0.01 0.01 81 1051.2
20260506125351 61 246 1.0 3.0 0.01 0.01 0.01 81 1051.3
20260506124352 61 216 1.0 2.0 0.01 0.01 0.01 80 1051.2
20260506123351 62 225 2.0 4.0 0.00 0.00 0.00 80 1051.4
20260506122447 62 204 4.0 12.0 0.00 0.00 0.00 78 1051.6
20260506121349 63 212 2.0 3.0 0.00 0.00 0.00 75 1051.8
20260506120347 64 212 5.0 8.0 0.00 0.00 0.00 73 1051.7
20260506115350 64 199 5.0 9.0 0.00 0.00 0.00 72 1051.5
20260506114349 64 208 5.0 7.0 0.00 0.00 0.00 73 1051.3
20260506113448 64 205 2.0 5.0 0.00 0.00 0.00 73 1051.3
20260506112449 64 226 4.0 7.0 0.00 0.00 0.00 73 1051.0
20260506111449 64 207 3.0 4.0 0.00 0.00 0.00 74 1051.0
20260506110547 64 222 0.0 2.0 0.00 0.00 0.00 73 1051.0
20260506105548 64 198 1.0 4.0 0.00 0.00 0.00 72 1050.9
20260506104549 64 218 4.0 6.0 0.00 0.00 0.00 73 1050.7
20260506103550 64 218 4.0 10.0 0.00 0.00 0.00 73 1050.7
20260506102550 64 177 1.0 4.0 0.00 0.00 0.00 73 1050.6
20260506100650 64 187 3.0 4.0 0.00 0.00 0.00 72 1050.8
20260506093548 64 226 1.0 3.0 0.00 0.00 0.00 71 1050.7
20260506092550 65 189 1.0 4.0 0.00 0.00 0.00 70 1050.6
20260506090735 65 225 0.0 3.0 0.00 0.00 0.00 68 1050.7
20260506085750 65 226 1.0 5.0 0.00 0.00 0.00 67 1051.1
20260506084847 66 281 3.0 4.0 0.00 0.00 0.00 67 1051.0
20260506083850 66 162 2.0 6.0 0.00 0.00 0.00 66 1051.0
20260506082847 66 245 3.0 6.0 0.00 0.00 0.00 64 1050.9
20260506081848 66 231 2.0 4.0 0.00 0.00 0.00 63 1050.9
20260506081748 66 248 1.0 2.0 0.00 0.00 0.00 63 1050.8
20260506080750 67 204 2.0 5.0 0.00 0.00 0.00 63 1050.8
20260506080647 67 212 3.0 7.0 0.00 0.00 0.00 63 1050.7
20260506072650 68 257 2.0 4.0 0.00 0.00 0.00 60 1051.0
20260506071648 68 93 0.0 2.0 0.00 0.00 0.00 60 1051.0
20260506070648 68 239 4.0 8.0 0.00 0.00 0.00 58 1051.0
20260506070550 68 146 1.0 4.0 0.00 0.00 0.00 57 1051.0
20260506061548 69 151 1.0 4.0 0.00 0.00 0.00 55 1051.4
20260506060648 70 165 3.0 4.0 0.00 0.00 0.00 54 1051.4
20260506050947 70 176 3.0 6.0 0.00 0.00 0.00 52 1051.8
20260506044849 69 249 2.0 3.0 0.00 0.00 0.00 52 1052.1
20260506043848 70 214 2.0 4.0 0.00 0.00 0.00 50 1051.8
20260506042848 69 187 2.0 4.0 0.00 0.00 0.00 51 1052.0
20260506041849 69 209 1.0 3.0 0.00 0.00 0.00 50 1051.9
20260506040849 69 167 0.0 1.0 0.00 0.00 0.00 48 1051.9